Time,TemperatureF,DewpointF,PressureIn,WindDirection,WindDirectionDegrees,WindSpeedMPH,WindSpeedGustMPH,Humidity,HourlyPrecipIn,Conditions,Clouds,dailyrainin,SoftwareType,DateUTC
2013-10-20 00:01:00,52.6,46.9,29.89,WNW,298,0.0,0.0,81,0.00,,---,0.00,VWS V14.01,2013-10-20 07:01:00,
2013-10-20 00:11:00,52.2,46.5,29.89,WNW,298,0.0,0.0,81,0.00,,---,0.00,VWS V14.01,2013-10-20 07:11:00,
2013-10-20 00:16:00,52.0,46.7,29.88,WNW,298,0.0,0.0,82,0.00,,---,0.00,VWS V14.01,2013-10-20 07:16:00,
2013-10-20 00:26:00,51.7,46.4,29.88,WNW,298,0.0,0.0,82,0.00,,---,0.00,VWS V14.01,2013-10-20 07:26:00,
2013-10-20 00:36:00,51.4,46.4,29.88,WNW,298,0.0,0.0,83,0.00,,---,0.00,VWS V14.01,2013-10-20 07:36:00,
2013-10-20 00:41:00,51.3,46.3,29.88,WNW,298,0.0,0.0,83,0.00,,---,0.00,VWS V14.01,2013-10-20 07:41:00,
2013-10-20 00:46:00,51.1,46.1,29.88,WNW,298,0.0,0.0,83,0.00,,---,0.00,VWS V14.01,2013-10-20 07:46:00,
2013-10-20 00:51:00,51.0,46.0,29.88,WNW,298,0.0,0.0,83,0.00,,---,0.00,VWS V14.01,2013-10-20 07:51:00,
2013-10-20 01:01:00,50.7,45.7,29.87,WNW,298,0.0,0.0,83,0.00,,---,0.00,VWS V14.01,2013-10-20 08:01:00,
2013-10-20 01:11:00,50.2,45.2,29.87,WNW,298,0.0,0.0,83,0.00,,---,0.00,VWS V14.01,2013-10-20 08:11:00,
2013-10-20 01:16:00,50.1,45.2,29.87,WNW,298,0.0,0.0,83,0.00,,---,0.00,VWS V14.01,2013-10-20 08:16:00,
2013-10-20 01:21:00,49.9,45.0,29.87,WNW,298,0.0,0.0,83,0.00,,---,0.00,VWS V14.01,2013-10-20 08:21:00,
2013-10-20 01:26:00,49.8,44.8,29.87,WNW,298,0.0,0.0,83,0.00,,---,0.00,VWS V14.01,2013-10-20 08:26:00,
2013-10-20 01:31:00,49.6,44.7,29.87,WNW,298,0.0,0.0,83,0.00,,---,0.00,VWS V14.01,2013-10-20 08:31:00,
2013-10-20 01:36:00,49.5,44.6,29.87,WNW,298,0.0,0.0,83,0.00,,---,0.00,VWS V14.01,2013-10-20 08:36:00,
2013-10-20 01:46:00,49.2,44.6,29.87,WNW,298,0.0,0.0,84,0.00,,---,0.00,VWS V14.01,2013-10-20 08:46:00,
2013-10-20 01:56:00,49.1,44.5,29.87,WNW,298,0.0,0.0,84,0.00,,---,0.00,VWS V14.01,2013-10-20 08:56:00,
2013-10-20 02:01:00,49.1,44.5,29.87,WNW,298,0.0,0.0,84,0.00,,---,0.00,VWS V14.01,2013-10-20 09:01:00,
2013-10-20 02:11:00,48.8,44.2,29.87,WNW,298,0.0,0.0,84,0.00,,---,0.00,VWS V14.01,2013-10-20 09:11:00,
2013-10-20 02:16:00,48.8,44.2,29.87,WNW,298,0.0,0.0,84,0.00,,---,0.00,VWS V14.01,2013-10-20 09:16:00,
2013-10-20 02:21:00,48.6,44.0,29.87,WNW,298,0.0,0.0,84,0.00,,---,0.00,VWS V14.01,2013-10-20 09:21:00,
2013-10-20 02:31:00,48.3,43.7,29.87,WNW,298,0.0,0.0,84,0.00,,---,0.00,VWS V14.01,2013-10-20 09:31:00,
2013-10-20 02:41:00,47.9,43.3,29.87,WNW,298,0.0,0.0,84,0.00,,---,0.00,VWS V14.01,2013-10-20 09:41:00,
2013-10-20 02:51:00,47.6,43.0,29.86,WNW,298,0.0,0.0,84,0.00,,---,0.00,VWS V14.01,2013-10-20 09:51:00,
2013-10-20 02:56:00,47.4,42.8,29.86,WNW,298,0.0,0.0,84,0.00,,---,0.00,VWS V14.01,2013-10-20 09:56:00,
2013-10-20 03:01:00,47.3,42.4,29.86,WNW,298,0.0,0.0,83,0.00,,---,0.00,VWS V14.01,2013-10-20 10:01:00,
2013-10-20 03:11:00,47.1,42.2,29.86,WNW,298,0.0,0.0,83,0.00,,---,0.00,VWS V14.01,2013-10-20 10:11:00,
2013-10-20 03:16:00,47.1,42.2,29.86,WNW,298,0.0,0.0,83,0.00,,---,0.00,VWS V14.01,2013-10-20 10:16:00,
2013-10-20 03:26:00,47.0,42.1,29.86,WNW,298,0.0,0.0,83,0.00,,---,0.00,VWS V14.01,2013-10-20 10:26:00,
2013-10-20 03:31:00,46.8,41.9,29.85,WNW,298,0.0,0.0,83,0.00,,---,0.00,VWS V14.01,2013-10-20 10:31:00,
2013-10-20 03:41:00,46.8,41.6,29.85,WNW,298,0.0,0.0,82,0.00,,---,0.00,VWS V14.01,2013-10-20 10:41:00,
2013-10-20 03:51:00,46.5,41.3,29.85,WNW,298,0.0,0.0,82,0.00,,---,0.00,VWS V14.01,2013-10-20 10:51:00,
2013-10-20 03:56:00,46.4,41.2,29.85,WNW,298,0.0,0.0,82,0.00,,---,0.00,VWS V14.01,2013-10-20 10:56:00,
2013-10-20 04:01:00,46.2,41.0,29.84,WNW,298,0.0,0.0,82,0.00,,---,0.00,VWS V14.01,2013-10-20 11:01:00,
2013-10-20 04:06:00,46.1,40.9,29.84,WNW,298,0.0,0.0,82,0.00,,---,0.00,VWS V14.01,2013-10-20 11:06:00,
2013-10-20 04:11:00,46.1,40.6,29.84,WNW,298,0.0,0.0,81,0.00,,---,0.00,VWS V14.01,2013-10-20 11:11:00,
2013-10-20 04:21:00,45.8,40.3,29.84,WNW,298,0.0,0.0,81,0.00,,---,0.00,VWS V14.01,2013-10-20 11:21:00,
2013-10-20 04:26:00,45.8,40.3,29.84,WNW,298,0.0,0.0,81,0.00,,---,0.00,VWS V14.01,2013-10-20 11:26:00,
2013-10-20 04:36:00,45.7,40.2,29.84,WNW,298,0.0,0.0,81,0.00,,---,0.00,VWS V14.01,2013-10-20 11:36:00,
2013-10-20 04:41:00,45.7,39.9,29.84,WNW,298,0.0,0.0,80,0.00,,---,0.00,VWS V14.01,2013-10-20 11:41:00,
2013-10-20 04:51:00,45.5,39.7,29.84,WNW,298,0.0,0.0,80,0.00,,---,0.00,VWS V14.01,2013-10-20 11:51:00,
2013-10-20 05:01:00,45.4,39.6,29.84,WNW,298,0.0,0.0,80,0.00,,---,0.00,VWS V14.01,2013-10-20 12:01:00,
2013-10-20 05:11:00,45.2,39.1,29.84,WNW,298,0.0,0.0,79,0.00,,---,0.00,VWS V14.01,2013-10-20 12:11:00,
2013-10-20 05:16:00,45.1,39.0,29.85,WNW,298,0.0,0.0,79,0.00,,---,0.00,VWS V14.01,2013-10-20 12:16:00,
2013-10-20 05:21:00,44.9,38.8,29.85,WNW,298,0.0,0.0,79,0.00,,---,0.00,VWS V14.01,2013-10-20 12:21:00,
2013-10-20 05:26:00,44.9,38.8,29.85,WNW,298,0.0,0.0,79,0.00,,---,0.00,VWS V14.01,2013-10-20 12:26:00,
2013-10-20 05:31:00,44.8,38.7,29.85,WNW,298,0.0,0.0,79,0.00,,---,0.00,VWS V14.01,2013-10-20 12:31:00,
2013-10-20 05:36:00,44.8,38.7,29.85,WNW,298,0.0,0.0,79,0.00,,---,0.00,VWS V14.01,2013-10-20 12:36:00,
2013-10-20 05:41:00,44.8,38.7,29.85,WNW,298,0.0,0.0,79,0.00,,---,0.00,VWS V14.01,2013-10-20 12:41:00,
2013-10-20 05:46:00,44.6,38.2,29.85,WNW,298,0.0,0.0,78,0.00,,---,0.00,VWS V14.01,2013-10-20 12:46:00,
2013-10-20 05:56:00,44.8,38.4,29.85,WNW,298,0.0,0.0,78,0.00,,---,0.00,VWS V14.01,2013-10-20 12:56:00,
2013-10-20 06:01:00,44.8,38.4,29.85,WNW,298,0.0,0.0,78,0.00,,---,0.00,VWS V14.01,2013-10-20 13:01:00,
2013-10-20 06:06:00,44.8,38.4,29.85,WNW,298,0.0,0.0,78,0.00,,---,0.00,VWS V14.01,2013-10-20 13:06:00,
2013-10-20 06:16:00,44.8,38.0,29.86,WNW,298,0.0,0.0,77,0.00,,---,0.00,VWS V14.01,2013-10-20 13:16:00,
2013-10-20 06:21:00,44.8,38.0,29.86,WNW,298,0.0,0.0,77,0.00,,---,0.00,VWS V14.01,2013-10-20 13:21:00,
2013-10-20 06:26:00,44.8,38.0,29.86,WNW,298,0.0,0.0,77,0.00,,---,0.00,VWS V14.01,2013-10-20 13:26:00,
2013-10-20 06:31:00,44.9,38.1,29.86,WNW,298,0.0,0.0,77,0.00,,---,0.00,VWS V14.01,2013-10-20 13:31:00,
2013-10-20 06:36:00,44.9,38.1,29.86,WNW,298,0.0,0.0,77,0.00,,---,0.00,VWS V14.01,2013-10-20 13:36:00,
2013-10-20 06:41:00,44.9,37.8,29.86,WNW,298,0.0,0.0,76,0.00,,---,0.00,VWS V14.01,2013-10-20 13:41:00,
2013-10-20 06:46:00,44.8,37.7,29.87,WNW,298,0.0,0.0,76,0.00,,---,0.00,VWS V14.01,2013-10-20 13:46:00,
2013-10-20 06:51:00,44.8,37.7,29.87,WNW,298,0.0,0.0,76,0.00,,---,0.00,VWS V14.01,2013-10-20 13:51:00,
2013-10-20 07:01:00,44.6,37.5,29.87,WNW,298,0.0,0.0,76,0.00,,---,0.00,VWS V14.01,2013-10-20 14:01:00,
2013-10-20 07:11:00,44.5,37.1,29.87,WNW,298,0.0,0.0,75,0.00,,---,0.00,VWS V14.01,2013-10-20 14:11:00,
2013-10-20 07:21:00,44.3,36.9,29.87,WNW,298,0.0,0.0,75,0.00,,---,0.00,VWS V14.01,2013-10-20 14:21:00,
2013-10-20 07:26:00,44.2,36.8,29.87,WNW,298,0.0,0.0,75,0.00,,---,0.00,VWS V14.01,2013-10-20 14:26:00,
2013-10-20 07:31:00,44.2,36.8,29.88,WNW,298,0.0,0.0,75,0.00,,---,0.00,VWS V14.01,2013-10-20 14:31:00,
2013-10-20 07:36:00,44.8,37.7,29.88,WNW,298,0.0,0.0,76,0.00,,---,0.00,VWS V14.01,2013-10-20 14:36:00,
2013-10-20 07:46:00,47.0,38.5,29.88,North,11,0.0,0.0,72,0.00,,---,0.00,VWS V14.01,2013-10-20 14:46:00,
2013-10-20 07:56:00,48.6,37.8,29.88,North,11,0.0,0.0,66,0.00,,---,0.00,VWS V14.01,2013-10-20 14:56:00,
2013-10-20 08:01:00,49.6,38.3,29.88,North,11,0.0,0.0,65,0.00,,---,0.00,VWS V14.01,2013-10-20 15:01:00,
2013-10-20 08:06:00,50.1,38.4,29.88,North,11,0.0,0.0,64,0.00,,---,0.00,VWS V14.01,2013-10-20 15:06:00,
2013-10-20 08:11:00,50.5,37.6,29.88,North,11,0.0,0.0,61,0.00,,---,0.00,VWS V14.01,2013-10-20 15:11:00,
2013-10-20 08:16:00,51.1,38.1,29.89,North,11,0.0,0.0,61,0.00,,---,0.00,VWS V14.01,2013-10-20 15:16:00,
2013-10-20 08:26:00,53.1,38.7,29.89,North,11,0.0,0.0,58,0.00,,---,0.00,VWS V14.01,2013-10-20 15:26:00,
2013-10-20 08:31:00,53.3,38.5,29.89,NW,318,0.0,0.0,57,0.00,,---,0.00,VWS V14.01,2013-10-20 15:31:00,
2013-10-20 08:36:00,54.1,38.3,29.89,West,263,0.0,0.0,55,0.00,,---,0.00,VWS V14.01,2013-10-20 15:36:00,
2013-10-20 08:41:00,54.5,38.2,29.89,West,260,0.0,0.0,54,0.00,,---,0.00,VWS V14.01,2013-10-20 15:41:00,
2013-10-20 08:46:00,55.0,37.7,29.89,WSW,256,0.0,0.0,52,0.00,,---,0.00,VWS V14.01,2013-10-20 15:46:00,
2013-10-20 08:56:00,56.2,37.8,29.89,WSW,254,0.0,0.0,50,0.00,,---,0.00,VWS V14.01,2013-10-20 15:56:00,
2013-10-20 09:01:00,56.9,38.0,29.89,WSW,254,0.0,0.0,49,0.00,,---,0.00,VWS V14.01,2013-10-20 16:01:00,
2013-10-20 09:11:00,58.9,38.2,29.89,WSW,254,0.0,0.0,46,0.00,,---,0.00,VWS V14.01,2013-10-20 16:11:00,
2013-10-20 09:16:00,59.5,37.6,29.88,WSW,254,0.0,0.0,44,0.00,,---,0.00,VWS V14.01,2013-10-20 16:16:00,
2013-10-20 09:26:00,60.9,38.3,29.88,WSW,254,0.0,0.0,43,0.00,,---,0.00,VWS V14.01,2013-10-20 16:26:00,
2013-10-20 09:31:00,61.6,37.7,29.88,WSW,253,0.0,0.0,41,0.00,,---,0.00,VWS V14.01,2013-10-20 16:31:00,
2013-10-20 09:41:00,63.4,37.4,29.88,WSW,253,0.0,0.0,38,0.00,,---,0.00,VWS V14.01,2013-10-20 16:41:00,
2013-10-20 09:46:00,64.0,37.2,29.88,WSW,253,0.0,0.0,37,0.00,,---,0.00,VWS V14.01,2013-10-20 16:46:00,
2013-10-20 09:56:00,65.8,38.1,29.88,WSW,253,0.0,0.0,36,0.00,,---,0.00,VWS V14.01,2013-10-20 16:56:00,
2013-10-20 10:01:00,67.1,39.3,29.88,WSW,253,0.0,0.0,36,0.00,,---,0.00,VWS V14.01,2013-10-20 17:01:00,
2013-10-20 10:06:00,67.6,39.0,29.88,WSW,253,0.0,0.0,35,0.00,,---,0.00,VWS V14.01,2013-10-20 17:06:00,
2013-10-20 10:11:00,67.9,39.3,29.88,South,171,0.0,0.0,35,0.00,,---,0.00,VWS V14.01,2013-10-20 17:11:00,
2013-10-20 10:16:00,68.1,39.4,29.88,South,189,0.0,0.0,35,0.00,,---,0.00,VWS V14.01,2013-10-20 17:16:00,
2013-10-20 10:21:00,68.8,40.8,29.88,SSW,198,0.0,0.0,36,0.00,,---,0.00,VWS V14.01,2013-10-20 17:21:00,
2013-10-20 10:31:00,69.4,39.8,29.88,SSW,203,0.0,0.0,34,0.00,,---,0.00,VWS V14.01,2013-10-20 17:31:00,
2013-10-20 10:41:00,70.4,40.0,29.88,SSW,195,0.0,0.0,33,0.00,,---,0.00,VWS V14.01,2013-10-20 17:41:00,
2013-10-20 10:46:00,70.9,41.2,29.88,SSW,195,0.0,0.0,34,0.00,,---,0.00,VWS V14.01,2013-10-20 17:46:00,
2013-10-20 10:51:00,71.8,42.7,29.88,SSW,195,0.0,0.0,35,0.00,,---,0.00,VWS V14.01,2013-10-20 17:51:00,
2013-10-20 10:56:00,72.5,44.1,29.88,South,171,0.0,0.0,36,0.00,,---,0.00,VWS V14.01,2013-10-20 17:56:00,
2013-10-20 11:01:00,72.8,44.3,29.87,South,178,0.0,0.0,36,0.00,,---,0.00,VWS V14.01,2013-10-20 18:01:00,
2013-10-20 11:06:00,73.3,45.5,29.87,SSW,193,0.0,0.0,37,0.00,,---,0.00,VWS V14.01,2013-10-20 18:06:00,
2013-10-20 11:16:00,74.0,45.4,29.86,South,171,0.0,0.0,36,0.00,,---,0.00,VWS V14.01,2013-10-20 18:16:00,
2013-10-20 11:21:00,74.6,47.3,29.86,South,172,0.0,0.0,38,0.00,,---,0.00,VWS V14.01,2013-10-20 18:21:00,
2013-10-20 11:26:00,74.9,48.3,29.86,South,172,0.0,0.0,39,0.00,,---,0.00,VWS V14.01,2013-10-20 18:26:00,
2013-10-20 11:36:00,75.3,48.7,29.86,SSW,206,0.0,0.0,39,0.00,,---,0.00,VWS V14.01,2013-10-20 18:36:00,
2013-10-20 11:46:00,76.1,48.0,29.86,SSW,202,0.0,0.0,37,0.00,,---,0.00,VWS V14.01,2013-10-20 18:46:00,
2013-10-20 11:56:00,76.8,47.8,29.86,South,179,0.0,0.0,36,0.00,,---,0.00,VWS V14.01,2013-10-20 18:56:00,
2013-10-20 12:01:00,77.2,43.4,29.85,South,179,0.0,0.0,30,0.00,,---,0.00,VWS V14.01,2013-10-20 19:01:00,
2013-10-20 12:06:00,77.4,44.4,29.85,SSE,154,0.0,0.0,31,0.00,,---,0.00,VWS V14.01,2013-10-20 19:06:00,
2013-10-20 12:16:00,79.0,44.1,29.85,SSW,198,0.0,0.0,29,0.00,,---,0.00,VWS V14.01,2013-10-20 19:16:00,
2013-10-20 12:21:00,78.8,46.5,29.85,West,261,0.0,0.0,32,0.00,,---,0.00,VWS V14.01,2013-10-20 19:21:00,
2013-10-20 12:26:00,79.6,50.3,29.85,WSW,247,0.0,0.0,36,0.00,,---,0.00,VWS V14.01,2013-10-20 19:26:00,
2013-10-20 12:31:00,80.1,50.0,29.84,South,186,0.0,0.0,35,0.00,,---,0.00,VWS V14.01,2013-10-20 19:31:00,
2013-10-20 12:36:00,80.3,50.2,29.84,SW,215,0.0,0.0,35,0.00,,---,0.00,VWS V14.01,2013-10-20 19:36:00,
2013-10-20 12:46:00,80.9,50.7,29.83,West,260,1.0,3.0,35,0.00,,---,0.00,VWS V14.01,2013-10-20 19:46:00,
2013-10-20 12:51:00,80.3,50.9,29.83,SW,219,0.0,2.0,36,0.00,,---,0.00,VWS V14.01,2013-10-20 19:51:00,
2013-10-20 12:56:00,81.2,51.0,29.83,SSW,199,0.0,4.0,35,0.00,,---,0.00,VWS V14.01,2013-10-20 19:56:00,
2013-10-20 13:01:00,81.4,51.9,29.83,WSW,251,0.0,2.0,36,0.00,,---,0.00,VWS V14.01,2013-10-20 20:01:00,
2013-10-20 13:11:00,81.2,51.7,29.83,South,176,1.0,2.0,36,0.00,,---,0.00,VWS V14.01,2013-10-20 20:11:00,
2013-10-20 13:16:00,81.8,53.7,29.82,SSW,196,2.0,5.0,38,0.00,,---,0.00,VWS V14.01,2013-10-20 20:16:00,
2013-10-20 13:21:00,82.0,53.2,29.82,SSW,202,2.0,6.0,37,0.00,,---,0.00,VWS V14.01,2013-10-20 20:21:00,
2013-10-20 13:26:00,82.2,53.4,29.82,SW,229,3.0,5.0,37,0.00,,---,0.00,VWS V14.01,2013-10-20 20:26:00,
2013-10-20 13:31:00,82.2,54.1,29.81,SSW,205,0.0,3.0,38,0.00,,---,0.00,VWS V14.01,2013-10-20 20:31:00,
2013-10-20 13:36:00,81.8,53.7,29.81,SW,223,0.0,6.0,38,0.00,,---,0.00,VWS V14.01,2013-10-20 20:36:00,
2013-10-20 13:41:00,81.6,55.0,29.81,West,278,0.0,6.0,40,0.00,,---,0.00,VWS V14.01,2013-10-20 20:41:00,
2013-10-20 13:46:00,81.2,55.3,29.81,WSW,241,1.0,6.0,41,0.00,,---,0.00,VWS V14.01,2013-10-20 20:46:00,
2013-10-20 13:51:00,80.9,55.0,29.81,SSW,213,0.0,6.0,41,0.00,,---,0.00,VWS V14.01,2013-10-20 20:51:00,
2013-10-20 14:01:00,80.5,56.6,29.80,WSW,251,3.0,10.0,44,0.00,,---,0.00,VWS V14.01,2013-10-20 21:01:00,
2013-10-20 14:06:00,80.5,57.2,29.80,SSW,213,5.0,10.0,45,0.00,,---,0.00,VWS V14.01,2013-10-20 21:06:00,
2013-10-20 14:11:00,79.9,57.9,29.80,WSW,253,1.0,7.0,47,0.00,,---,0.00,VWS V14.01,2013-10-20 21:11:00,
2013-10-20 14:16:00,80.3,58.2,29.80,South,178,0.0,5.0,47,0.00,,---,0.00,VWS V14.01,2013-10-20 21:16:00,
2013-10-20 14:21:00,79.9,57.9,29.80,SW,222,0.0,5.0,47,0.00,,---,0.00,VWS V14.01,2013-10-20 21:21:00,
2013-10-20 14:26:00,79.4,58.6,29.80,SSW,210,4.0,4.0,49,0.00,,---,0.00,VWS V14.01,2013-10-20 21:26:00,
2013-10-20 14:36:00,79.6,59.3,29.80,SSW,212,3.0,5.0,50,0.00,,---,0.00,VWS V14.01,2013-10-20 21:36:00,
2013-10-20 14:46:00,79.0,58.8,29.80,SW,230,0.0,6.0,50,0.00,,---,0.00,VWS V14.01,2013-10-20 21:46:00,
2013-10-20 14:51:00,78.6,58.4,29.80,WSW,256,0.0,7.0,50,0.00,,---,0.00,VWS V14.01,2013-10-20 21:51:00,
2013-10-20 14:56:00,77.7,58.7,29.80,SSW,205,0.0,6.0,52,0.00,,---,0.00,VWS V14.01,2013-10-20 21:56:00,
2013-10-20 15:01:00,77.4,57.9,29.80,WSW,240,4.0,8.0,51,0.00,,---,0.00,VWS V14.01,2013-10-20 22:01:00,
2013-10-20 15:11:00,76.8,57.9,29.80,WSW,251,0.0,6.0,52,0.00,,---,0.00,VWS V14.01,2013-10-20 22:11:00,
2013-10-20 15:21:00,77.0,56.4,29.80,SW,223,1.0,6.0,49,0.00,,---,0.00,VWS V14.01,2013-10-20 22:21:00,
2013-10-20 15:26:00,77.0,54.7,29.80,SSW,209,1.0,7.0,46,0.00,,---,0.00,VWS V14.01,2013-10-20 22:26:00,
2013-10-20 15:31:00,77.0,55.2,29.80,SW,227,2.0,5.0,47,0.00,,---,0.00,VWS V14.01,2013-10-20 22:31:00,
2013-10-20 15:41:00,77.0,55.8,29.80,SW,216,10.0,10.0,48,0.00,,---,0.00,VWS V14.01,2013-10-20 22:41:00,
2013-10-20 15:51:00,75.8,56.4,29.80,SW,232,0.0,3.0,51,0.00,,---,0.00,VWS V14.01,2013-10-20 22:51:00,
2013-10-20 15:56:00,75.8,56.4,29.80,SW,232,0.0,4.0,51,0.00,,---,0.00,VWS V14.01,2013-10-20 22:56:00,
2013-10-20 16:01:00,75.1,55.8,29.80,SW,226,0.0,5.0,51,0.00,,---,0.00,VWS V14.01,2013-10-20 23:01:00,
2013-10-20 16:11:00,74.7,57.0,29.80,SW,229,0.0,3.0,54,0.00,,---,0.00,VWS V14.01,2013-10-20 23:11:00,
2013-10-20 16:16:00,74.4,57.2,29.80,WSW,240,0.0,3.0,55,0.00,,---,0.00,VWS V14.01,2013-10-20 23:16:00,
2013-10-20 16:21:00,74.4,57.2,29.80,West,270,0.0,4.0,55,0.00,,---,0.00,VWS V14.01,2013-10-20 23:21:00,
2013-10-20 16:26:00,74.6,56.9,29.80,SW,222,0.0,1.0,54,0.00,,---,0.00,VWS V14.01,2013-10-20 23:26:00,
2013-10-20 16:31:00,74.6,55.8,29.81,SW,227,0.0,3.0,52,0.00,,---,0.00,VWS V14.01,2013-10-20 23:31:00,
2013-10-20 16:41:00,73.5,55.9,29.81,SW,234,0.0,2.0,54,0.00,,---,0.00,VWS V14.01,2013-10-20 23:41:00,
2013-10-20 16:46:00,73.2,55.6,29.81,SW,233,0.0,1.0,54,0.00,,---,0.00,VWS V14.01,2013-10-20 23:46:00,
2013-10-20 16:51:00,72.8,55.2,29.81,West,268,0.0,6.0,54,0.00,,---,0.00,VWS V14.01,2013-10-20 23:51:00,
2013-10-20 16:56:00,72.5,54.9,29.81,SW,220,1.0,1.0,54,0.00,,---,0.00,VWS V14.01,2013-10-20 23:56:00,
2013-10-20 17:01:00,72.3,54.2,29.81,WSW,254,0.0,2.0,53,0.00,,---,0.00,VWS V14.01,2013-10-21 00:01:00,
2013-10-20 17:06:00,72.0,54.0,29.81,SW,230,0.0,2.0,53,0.00,,---,0.00,VWS V14.01,2013-10-21 00:06:00,
2013-10-20 17:11:00,71.8,53.8,29.81,SW,232,0.0,0.0,53,0.00,,---,0.00,VWS V14.01,2013-10-21 00:11:00,
2013-10-20 17:16:00,71.5,54.0,29.81,SW,227,0.0,0.0,54,0.00,,---,0.00,VWS V14.01,2013-10-21 00:16:00,
2013-10-20 17:26:00,70.4,54.5,29.81,WSW,250,0.0,0.0,57,0.00,,---,0.00,VWS V14.01,2013-10-21 00:26:00,
2013-10-20 17:31:00,70.1,54.2,29.81,WSW,250,0.0,0.0,57,0.00,,---,0.00,VWS V14.01,2013-10-21 00:31:00,
2013-10-20 17:36:00,69.8,54.4,29.81,WSW,251,0.0,0.0,58,0.00,,---,0.00,VWS V14.01,2013-10-21 00:36:00,
2013-10-20 17:41:00,69.8,54.4,29.81,West,260,0.0,0.0,58,0.00,,---,0.00,VWS V14.01,2013-10-21 00:41:00,
2013-10-20 17:46:00,69.8,54.8,29.81,West,260,0.0,0.0,59,0.00,,---,0.00,VWS V14.01,2013-10-21 00:46:00,
2013-10-20 17:56:00,69.1,55.1,29.81,West,260,0.0,0.0,61,0.00,,---,0.00,VWS V14.01,2013-10-21 00:56:00,
2013-10-20 18:06:00,68.3,54.8,29.81,West,278,0.0,0.0,62,0.00,,---,0.00,VWS V14.01,2013-10-21 01:06:00,
2013-10-20 18:16:00,67.8,55.2,29.81,West,278,0.0,0.0,64,0.00,,---,0.00,VWS V14.01,2013-10-21 01:16:00,
2013-10-20 18:21:00,67.4,54.8,29.81,West,278,0.0,0.0,64,0.00,,---,0.00,VWS V14.01,2013-10-21 01:21:00,
2013-10-20 18:31:00,66.8,54.2,29.82,SSE,158,0.0,0.0,64,0.00,,---,0.00,VWS V14.01,2013-10-21 01:31:00,
2013-10-20 18:41:00,66.0,53.5,29.82,SSE,158,0.0,0.0,64,0.00,,---,0.00,VWS V14.01,2013-10-21 01:41:00,
2013-10-20 18:51:00,65.2,53.2,29.83,SSE,160,0.0,0.0,65,0.00,,---,0.00,VWS V14.01,2013-10-21 01:51:00,
2013-10-20 18:56:00,64.7,53.5,29.83,SSE,162,0.0,0.0,67,0.00,,---,0.00,VWS V14.01,2013-10-21 01:56:00,
2013-10-20 19:06:00,64.0,53.2,29.83,SSE,162,0.0,0.0,68,0.00,,---,0.00,VWS V14.01,2013-10-21 02:06:00,
2013-10-20 19:16:00,63.4,53.1,29.83,SSE,162,0.0,0.0,69,0.00,,---,0.00,VWS V14.01,2013-10-21 02:16:00,
2013-10-20 19:21:00,62.9,53.4,29.83,SSE,162,0.0,0.0,71,0.00,,---,0.00,VWS V14.01,2013-10-21 02:21:00,
2013-10-20 19:31:00,61.8,52.3,29.83,East,95,0.0,0.0,71,0.00,,---,0.00,VWS V14.01,2013-10-21 02:31:00,
2013-10-20 19:41:00,61.2,52.1,29.83,East,95,0.0,0.0,72,0.00,,---,0.00,VWS V14.01,2013-10-21 02:41:00,
2013-10-20 19:46:00,60.9,52.2,29.84,East,95,0.0,0.0,73,0.00,,---,0.00,VWS V14.01,2013-10-21 02:46:00,
2013-10-20 19:51:00,60.5,51.4,29.84,East,95,0.0,0.0,72,0.00,,---,0.00,VWS V14.01,2013-10-21 02:51:00,
2013-10-20 20:01:00,59.9,50.9,29.84,East,95,0.0,0.0,72,0.00,,---,0.00,VWS V14.01,2013-10-21 03:01:00,
2013-10-20 20:06:00,59.6,51.0,29.84,East,95,0.0,0.0,73,0.00,,---,0.00,VWS V14.01,2013-10-21 03:06:00,
2013-10-20 20:11:00,59.3,50.7,29.84,East,95,0.0,0.0,73,0.00,,---,0.00,VWS V14.01,2013-10-21 03:11:00,
2013-10-20 20:16:00,59.0,50.7,29.84,East,95,0.0,0.0,74,0.00,,---,0.00,VWS V14.01,2013-10-21 03:16:00,
2013-10-20 20:21:00,58.9,50.6,29.84,East,95,0.0,0.0,74,0.00,,---,0.00,VWS V14.01,2013-10-21 03:21:00,
2013-10-20 20:26:00,58.6,50.3,29.84,East,95,0.0,0.0,74,0.00,,---,0.00,VWS V14.01,2013-10-21 03:26:00,
2013-10-20 20:31:00,58.3,50.4,29.84,East,95,0.0,0.0,75,0.00,,---,0.00,VWS V14.01,2013-10-21 03:31:00,
2013-10-20 20:36:00,58.1,50.2,29.84,East,95,0.0,0.0,75,0.00,,---,0.00,VWS V14.01,2013-10-21 03:36:00,
2013-10-20 20:41:00,57.8,49.9,29.84,East,95,0.0,0.0,75,0.00,,---,0.00,VWS V14.01,2013-10-21 03:41:00,
2013-10-20 20:46:00,58.0,50.8,29.85,East,95,0.0,0.0,77,0.00,,---,0.00,VWS V14.01,2013-10-21 03:46:00,
2013-10-20 20:51:00,57.8,51.0,29.85,East,95,0.0,0.0,78,0.00,,---,0.00,VWS V14.01,2013-10-21 03:51:00,
2013-10-20 21:01:00,57.5,51.0,29.85,East,95,0.0,0.0,79,0.00,,---,0.00,VWS V14.01,2013-10-21 04:01:00,
2013-10-20 21:06:00,57.2,50.8,29.85,East,95,0.0,0.0,79,0.00,,---,0.00,VWS V14.01,2013-10-21 04:06:00,
2013-10-20 21:11:00,57.0,50.6,29.85,East,95,0.0,0.0,79,0.00,,---,0.00,VWS V14.01,2013-10-21 04:11:00,
2013-10-20 21:16:00,56.9,50.5,29.85,East,95,0.0,0.0,79,0.00,,---,0.00,VWS V14.01,2013-10-21 04:16:00,
2013-10-20 21:21:00,56.6,50.2,29.85,East,95,0.0,0.0,79,0.00,,---,0.00,VWS V14.01,2013-10-21 04:21:00,
2013-10-20 21:26:00,56.5,50.1,29.85,East,95,0.0,0.0,79,0.00,,---,0.00,VWS V14.01,2013-10-21 04:26:00,
2013-10-20 21:31:00,56.3,50.2,29.85,East,95,0.0,0.0,80,0.00,,---,0.00,VWS V14.01,2013-10-21 04:31:00,
2013-10-20 21:36:00,56.2,50.1,29.85,East,95,0.0,0.0,80,0.00,,---,0.00,VWS V14.01,2013-10-21 04:36:00,
2013-10-20 21:41:00,56.0,49.9,29.85,East,95,0.0,0.0,80,0.00,,---,0.00,VWS V14.01,2013-10-21 04:41:00,
2013-10-20 21:46:00,55.9,49.8,29.85,East,95,0.0,0.0,80,0.00,,---,0.00,VWS V14.01,2013-10-21 04:46:00,
2013-10-20 21:51:00,55.7,49.6,29.85,East,95,0.0,0.0,80,0.00,,---,0.00,VWS V14.01,2013-10-21 04:51:00,
2013-10-20 21:56:00,55.7,50.0,29.85,East,95,0.0,0.0,81,0.00,,---,0.00,VWS V14.01,2013-10-21 04:56:00,
2013-10-20 22:01:00,55.6,49.9,29.85,East,95,0.0,0.0,81,0.00,,---,0.00,VWS V14.01,2013-10-21 05:01:00,
2013-10-20 22:11:00,55.3,49.6,29.85,East,95,0.0,0.0,81,0.00,,---,0.00,VWS V14.01,2013-10-21 05:11:00,
2013-10-20 22:21:00,55.0,49.3,29.85,East,95,0.0,0.0,81,0.00,,---,0.00,VWS V14.01,2013-10-21 05:21:00,
2013-10-20 22:26:00,54.7,49.3,29.85,East,95,0.0,0.0,82,0.00,,---,0.00,VWS V14.01,2013-10-21 05:26:00,
2013-10-20 22:31:00,54.5,49.1,29.85,East,95,0.0,0.0,82,0.00,,---,0.00,VWS V14.01,2013-10-21 05:31:00,
2013-10-20 22:36:00,54.5,49.1,29.85,East,95,0.0,0.0,82,0.00,,---,0.00,VWS V14.01,2013-10-21 05:36:00,
2013-10-20 22:46:00,54.2,48.8,29.85,East,95,0.0,0.0,82,0.00,,---,0.00,VWS V14.01,2013-10-21 05:46:00,
2013-10-20 22:56:00,53.9,48.5,29.85,East,95,0.0,0.0,82,0.00,,---,0.00,VWS V14.01,2013-10-21 05:56:00,
2013-10-20 23:01:00,53.8,48.4,29.85,East,95,0.0,0.0,82,0.00,,---,0.00,VWS V14.01,2013-10-21 06:01:00,
2013-10-20 23:11:00,53.5,48.2,29.85,East,95,0.0,0.0,82,0.00,,---,0.00,VWS V14.01,2013-10-21 06:11:00,
2013-10-20 23:21:00,53.1,48.1,29.84,East,95,0.0,0.0,83,0.00,,---,0.00,VWS V14.01,2013-10-21 06:21:00,
2013-10-20 23:26:00,52.9,47.9,29.84,East,95,0.0,0.0,83,0.00,,---,0.00,VWS V14.01,2013-10-21 06:26:00,
2013-10-20 23:31:00,52.8,47.8,29.84,East,95,0.0,0.0,83,0.00,,---,0.00,VWS V14.01,2013-10-21 06:31:00,
2013-10-20 23:36:00,52.6,47.6,29.84,East,95,0.0,0.0,83,0.00,,---,0.00,VWS V14.01,2013-10-21 06:36:00,
2013-10-20 23:41:00,52.5,47.5,29.84,East,95,0.0,0.0,83,0.00,,---,0.00,VWS V14.01,2013-10-21 06:41:00,
2013-10-20 23:46:00,52.3,47.3,29.84,East,95,0.0,0.0,83,0.00,,---,0.00,VWS V14.01,2013-10-21 06:46:00,
2013-10-20 23:56:00,52.0,47.0,29.84,East,95,0.0,0.0,83,0.00,,---,0.00,VWS V14.01,2013-10-21 06:56:00,